Leuchars, United Kingdom

12:37 AM BST on March 27, 2017 (GMT +0100)
Leuchars Air Base

Weather History for EGQL - October, 2012

Change the Weather History Date:

Friday, October 19, 2012

  Actual Average Record
Temperature  
Mean Temperature 48 °F -  
Max Temperature 50 °F 49 °F 59 °F (2007)
Min Temperature 45 °F 39 °F 32 °F (2002)
Degree Days  
Heating Degree Days 18    
Moisture  
Dew Point 44 °F    
Average Humidity 85    
Maximum Humidity 93    
Minimum Humidity 75    
Precipitation  
Precipitation 0.01 in - - ()
Sea Level Pressure  
Sea Level Pressure 29.75 in    
Wind  
Wind Speed 7 mph ()    
Max Wind Speed 13 mph    
Max Gust Speed -    
Visibility 7.1 miles    
Events Rain    
Averages and records for this station are not official NWS values.
T = Trace of Precipitation, MM = Missing Value Source: Averaged Metar Reports

Daily Weather History Graph

Daily Weather History Graph

Search for Another Location

Airport or City:

Trip Planner

Search our weather history database for the weather conditions in past years. The results will help you decide how hot, cold, wet, or windy it might be!

Date:

Astronomy

Oct. 19, 2012 Rise Set
Actual Time 7:52 AM BST 5:59 PM BST
Civil Twilight 7:14 AM BST 6:37 PM BST
Nautical Twilight 6:30 AM BST 7:21 PM BST
Astronomical Twilight 5:46 AM BST 8:04 PM BST
Moon 1:04 PM BST (10/19) 8:39 PM BST (10/19)
Length of Visible Light 11h 23m
Length of Day
10h 06m
Waxing Crescent, 21% of the Moon is Illuminated
Oct 19
Waxing Crescent
Oct 22
First Quarter
Oct 29
Full
Nov 7
Last Quarter
Nov 13
New

Hourly Weather History & Observations

Time (BST) Temp. Windchill Dew Point Humidity Pressure Visibility Wind Dir Wind Speed Gust Speed Precip Events Conditions
12:50 AM 48 °F - 44 °F 81% 29.70 in 22 mi ENE 6.9 mph - -   Partly Cloudy
12:50 AM 48.2 °F - 44.6 °F 87% 29.68 in 6.2 mi ENE 6.9 mph - N/A   Overcast
1:50 AM 48.2 °F - 44.6 °F 87% 29.68 in 6.2 mi ENE 8.1 mph - N/A   Overcast
2:50 AM 46.4 °F 44.3 °F 42.8 °F 87% 29.71 in 6.2 mi North 4.6 mph - N/A Rain Light Rain
3:50 AM 46 °F - 43 °F 87% 29.72 in 25 mi NE 2.3 mph - - Rain Light Rain
3:50 AM 46.4 °F - 42.8 °F 87% 29.71 in 6.2 mi NE 2.3 mph - N/A   Overcast
4:50 AM 46.4 °F 41.9 °F 42.8 °F 87% 29.71 in 6.2 mi NNE 9.2 mph - N/A   Overcast
5:50 AM 46.4 °F 42.4 °F 42.8 °F 87% 29.71 in 6.2 mi NE 8.1 mph - N/A   Overcast
6:50 AM 47 °F - 44 °F 83% 29.75 in 22 mi NE 9.2 mph - -   Partly Cloudy
6:50 AM 46.4 °F 41.9 °F 42.8 °F 87% 29.74 in 6.2 mi NE 9.2 mph - N/A   Mostly Cloudy
7:50 AM 46.4 °F 41.5 °F 42.8 °F 87% 29.74 in 6.2 mi NE 10.4 mph - N/A   Mostly Cloudy
8:50 AM 46.4 °F 41.9 °F 42.8 °F 87% 29.74 in 6.2 mi NE 9.2 mph - N/A   Mostly Cloudy
9:50 AM 48 °F - 43 °F 77% 29.78 in 25 mi NE 10.4 mph - -   Mostly Cloudy
9:50 AM 48.2 °F - 42.8 °F 82% 29.77 in 6.2 mi NE 10.4 mph - N/A   Mostly Cloudy
10:50 AM 48.2 °F - 42.8 °F 82% 29.77 in 6.2 mi NE 10.4 mph - N/A   Mostly Cloudy
11:50 AM 50.0 °F - 44.6 °F 82% 29.77 in 6.2 mi ENE 10.4 mph - N/A   Mostly Cloudy
12:50 PM 49 °F - 44 °F 78% 29.79 in 25 mi NE 11.5 mph - -   Mostly Cloudy
12:50 PM 50.0 °F - 44.6 °F 82% 29.77 in 6.2 mi NE 11.5 mph - N/A   Mostly Cloudy
1:50 PM 50.0 °F - 44.6 °F 82% 29.77 in 6.2 mi ENE 9.2 mph - N/A   Mostly Cloudy
2:27 PM 50.0 °F - 44.6 °F 82% 29.77 in 6.2 mi ENE 10.4 mph - N/A Rain Light Rain
2:50 PM 50.0 °F - 44.6 °F 82% 29.77 in 6.2 mi ENE 11.5 mph - N/A   Mostly Cloudy
3:50 PM 50 °F - 45 °F 75% 29.78 in 19 mi ENE 11.5 mph - -   Partly Cloudy
3:50 PM 50.0 °F - 44.6 °F 82% 29.77 in 6.2 mi ENE 11.5 mph - N/A   Mostly Cloudy
4:50 PM 50.0 °F - 44.6 °F 82% 29.77 in 6.2 mi NE 12.7 mph - N/A   Mostly Cloudy
5:50 PM 50.0 °F - 46.4 °F 87% 29.77 in 6.2 mi NE 9.2 mph - N/A   Mostly Cloudy
6:19 PM 50.0 °F - 46.4 °F 87% 29.77 in 6.2 mi NE 4.6 mph - N/A   Overcast
6:50 PM 49 °F - 46 °F 84% 29.79 in 19 mi NNE 4.6 mph - -   Partly Cloudy
6:50 PM 48.2 °F - 46.4 °F 93% 29.77 in 6.2 mi NNE 4.6 mph - N/A   Mostly Cloudy
7:50 PM 48.2 °F - 46.4 °F 93% 29.80 in 6.2 mi NNE 4.6 mph - N/A Rain Light Rain
8:50 PM 50.0 °F - 46.4 °F 87% 29.80 in 6.2 mi NE 5.8 mph - N/A Rain Light Rain
9:50 PM 48.2 °F - 46.4 °F 93% 29.77 in 6.2 mi NNE 3.5 mph - N/A   Mostly Cloudy
10:50 PM 48.2 °F - 46.4 °F 93% 29.77 in 6.2 mi ENE 3.5 mph - N/A   Mostly Cloudy
11:50 PM 46.4 °F - 44.6 °F 93% 29.77 in 6.2 mi North 2.3 mph - N/A   Mostly Cloudy